When you browse on this site, cookies collect data to enhance your experience and personalize the content and advertising you see.
Visit our Privacy Policy to learn more. By continuing to use the site, you agree to this use of cookies and data.
  • In Sweden
  • List of Countries
  • For 7 days
  • Water Temperature
  • Satellite Maps
  • Weather Map
  • Weather Widgets
  • user-avatar
    Login

    Hourly Weather Linz

    Today, 23 March, Saturday

    Time Temperature Precipitation Wind Pressure Humidity
    00:00 +8°C° 0 mm 1 mps 742 mmHg 80%
    01:00 +8°C° 0 mm 1 mps 742 mmHg 80%
    02:00 +7°C° 0 mm 1 mps 742 mmHg 80%
    03:00 +7°C° 0 mm 1 mps 742 mmHg 80%
    04:00 +7°C° 0 mm 1 mps 742 mmHg 80%
    05:00 +7°C° 0 mm 1 mps 742 mmHg 80%
    06:00 +6°C° 0 mm 0 mps 742 mmHg 79%
    07:00 +6°C° 0 mm 0 mps 742 mmHg 78%
    08:00 +9°C° 0 mm 1 mps 741 mmHg 71%
    09:00 +12°C° 0 mm 1 mps 741 mmHg 64%
    10:00 +14°C° 0 mm 1 mps 741 mmHg 56%
    11:00 +15°C° 0 mm 1 mps 741 mmHg 54%
    12:00 +16°C° 0 mm 1 mps 741 mmHg 52%
    13:00 +19°C° 0 mm 1 mps 740 mmHg 50%
    14:00 +19°C° 0 mm 1 mps 740 mmHg 50%
    15:00 +19°C° 0 mm 1 mps 740 mmHg 51%
    16:00 +19°C° 0 mm 1 mps 739 mmHg 51%
    17:00 +16°C° 0 mm 1 mps 739 mmHg 58%
    18:00 +14°C° 0 mm 1 mps 740 mmHg 66%
    19:00 +11°C° 0 mm 0 mps 740 mmHg 73%
    20:00 +10°C° 0 mm 0 mps 740 mmHg 76%
    21:00 +10°C° 0 mm 0 mps 740 mmHg 78%
    22:00 +10°C° 0 mm 1 mps 740 mmHg 80%
    23:00 +10°C° 0 mm 1 mps 740 mmHg 81%

    Tomorrow, 24 March, Sunday

    Time Temperature Precipitation Wind Pressure Humidity
    00:00 +10°C° 0 mm 1 mps 740 mmHg 83%
    01:00 +9°C° 0 mm 1 mps 740 mmHg 84%
    02:00 +9°C° 0 mm 1 mps 740 mmHg 84%
    03:00 +8°C° 0 mm 1 mps 740 mmHg 85%
    04:00 +8°C° 0 mm 1 mps 740 mmHg 86%
    05:00 +7°C° 0 mm 0 mps 739 mmHg 85%
    06:00 +7°C° 0 mm 0 mps 739 mmHg 85%
    07:00 +8°C° 0 mm 0 mps 739 mmHg 84%
    08:00 +10°C° 0 mm 0 mps 739 mmHg 77%
    09:00 +12°C° 0 mm 0 mps 739 mmHg 69%
    10:00 +14°C° 0 mm 0 mps 739 mmHg 62%
    11:00 +15°C° 0 mm 0 mps 738 mmHg 58%
    12:00 +18°C° 0 mm 1 mps 738 mmHg 55%
    13:00 +19°C° 0 mm 1 mps 737 mmHg 52%
    14:00 +18°C° 0 mm 2 mps 737 mmHg 52%
    15:00 +18°C° 0 mm 2 mps 736 mmHg 53%
    16:00 +18°C° 0 mm 3 mps 736 mmHg 54%
    17:00 +16°C° 0 mm 2 mps 736 mmHg 60%
    18:00 +15°C° 0 mm 2 mps 736 mmHg 67%
    19:00 +13°C° 0 mm 2 mps 736 mmHg 74%
    20:00 +12°C° 0 mm 2 mps 737 mmHg 77%
    21:00 +12°C° 0 mm 2 mps 737 mmHg 81%
    22:00 +10°C° 0 mm 2 mps 737 mmHg 84%
    23:00 +10°C° 0.1 mm 2 mps 737 mmHg 86%

    Day after tomorrow, 25 March, Monday

    Time Temperature Precipitation Wind Pressure Humidity
    00:00 +9°C° 0.1 mm 2 mps 737 mmHg 89%
    01:00 +9°C° 0.1 mm 2 mps 737 mmHg 91%
    02:00 +8°C° 0.1 mm 2 mps 736 mmHg 92%
    03:00 +8°C° 0.1 mm 2 mps 736 mmHg 92%
    04:00 +8°C° 0.1 mm 2 mps 736 mmHg 93%
    05:00 +8°C° 0.1 mm 2 mps 736 mmHg 93%
    06:00 +8°C° 0.1 mm 3 mps 736 mmHg 92%
    07:00 +7°C° 0.1 mm 3 mps 736 mmHg 92%
    08:00 +7°C° 0.2 mm 4 mps 736 mmHg 84%
    09:00 +8°C° 0.2 mm 4 mps 736 mmHg 76%
    10:00 +9°C° 0.2 mm 5 mps 736 mmHg 68%
    11:00 +9°C° 0 mm 6 mps 736 mmHg 63%
    12:00 +9°C° 0 mm 7 mps 735 mmHg 57%
    13:00 +9°C° 0 mm 7 mps 735 mmHg 52%
    14:00 +9°C° 0 mm 8 mps 735 mmHg 53%
    15:00 +7°C° 0 mm 8 mps 735 mmHg 54%
    16:00 +7°C° 0 mm 8 mps 735 mmHg 55%
    17:00 +6°C° 0.1 mm 7 mps 736 mmHg 58%
    18:00 +5°C° 0.1 mm 6 mps 737 mmHg 61%
    19:00 +4°C° 0.1 mm 6 mps 737 mmHg 64%
    20:00 +3°C° 0 mm 6 mps 738 mmHg 66%
    21:00 +2°C° 0 mm 5 mps 739 mmHg 67%
    22:00 +2°C° 0 mm 5 mps 739 mmHg 68%
    23:00 +1°C° 0 mm 5 mps 740 mmHg 71%

    26 March, Tuesday

    Time Temperature Precipitation Wind Pressure Humidity
    00:00 +1°C° 0 mm 5 mps 740 mmHg 74%
    01:00 +1°C° 0 mm 4 mps 740 mmHg 77%
    02:00 0°C° 0 mm 4 mps 740 mmHg 80%
    03:00 0°C° 0 mm 4 mps 741 mmHg 83%
    04:00 0°C° 0 mm 4 mps 741 mmHg 86%
    05:00 0°C° 0 mm 4 mps 741 mmHg 86%
    06:00 0°C° 0 mm 4 mps 742 mmHg 86%
    07:00 0°C° 0 mm 4 mps 743 mmHg 86%
    08:00 +1°C° 0.1 mm 4 mps 743 mmHg 78%
    09:00 +4°C° 0.1 mm 4 mps 743 mmHg 71%
    10:00 +5°C° 0.1 mm 4 mps 744 mmHg 64%
    11:00 +6°C° 0.1 mm 5 mps 743 mmHg 60%
    12:00 +6°C° 0.1 mm 5 mps 743 mmHg 55%
    13:00 +7°C° 0.1 mm 5 mps 743 mmHg 51%
    14:00 +7°C° 0 mm 5 mps 743 mmHg 51%
    15:00 +8°C° 0 mm 5 mps 742 mmHg 50%
    16:00 +8°C° 0 mm 5 mps 742 mmHg 50%
    17:00 +6°C° 0 mm 4 mps 742 mmHg 56%
    18:00 +5°C° 0 mm 4 mps 743 mmHg 61%
    19:00 +4°C° 0 mm 3 mps 743 mmHg 67%
    20:00 +3°C° 0 mm 3 mps 744 mmHg 69%
    21:00 +3°C° 0 mm 3 mps 744 mmHg 71%
    22:00 +2°C° 0 mm 3 mps 744 mmHg 73%
    23:00 +1°C° 0 mm 3 mps 744 mmHg 75%

    27 March, Wednesday

    Time Temperature Precipitation Wind Pressure Humidity
    00:00 +1°C° 0 mm 3 mps 744 mmHg 77%
    01:00 +1°C° 0 mm 2 mps 744 mmHg 79%
    02:00 +1°C° 0 mm 2 mps 744 mmHg 80%
    03:00 +1°C° 0 mm 2 mps 744 mmHg 81%
    04:00 -1°C° 0 mm 2 mps 744 mmHg 83%
    05:00 +1°C° 0 mm 2 mps 744 mmHg 80%
    06:00 +1°C° 0 mm 2 mps 744 mmHg 78%
    07:00 +2°C° 0 mm 2 mps 744 mmHg 76%
    08:00 +3°C° 0 mm 2 mps 744 mmHg 71%
    09:00 +4°C° 0 mm 3 mps 744 mmHg 65%
    10:00 +6°C° 0 mm 4 mps 744 mmHg 59%
    11:00 +7°C° 0 mm 4 mps 743 mmHg 58%
    12:00 +8°C° 0 mm 4 mps 743 mmHg 56%
    13:00 +8°C° 0 mm 5 mps 743 mmHg 55%
    14:00 +8°C° 0.1 mm 5 mps 742 mmHg 58%
    15:00 +8°C° 0.1 mm 5 mps 742 mmHg 60%
    16:00 +8°C° 0.1 mm 5 mps 742 mmHg 63%
    17:00 +7°C° 0.2 mm 4 mps 742 mmHg 69%
    18:00 +6°C° 0.2 mm 4 mps 743 mmHg 76%
    19:00 +5°C° 0.2 mm 3 mps 743 mmHg 82%
    20:00 +5°C° 0.3 mm 3 mps 743 mmHg 84%
    21:00 +5°C° 0.3 mm 3 mps 743 mmHg 86%
    22:00 +4°C° 0.3 mm 3 mps 743 mmHg 89%
    23:00 +5°C° 0.2 mm 2 mps 743 mmHg 90%

    28 March, Thursday

    Time Temperature Precipitation Wind Pressure Humidity
    00:00 +5°C° 0.2 mm 2 mps 743 mmHg 91%
    01:00 +5°C° 0.2 mm 2 mps 743 mmHg 92%
    02:00 +5°C° 0.5 mm 2 mps 743 mmHg 92%
    03:00 +5°C° 0.5 mm 2 mps 743 mmHg 92%
    04:00 +5°C° 0.5 mm 2 mps 743 mmHg 92%
    05:00 +5°C° 1.3 mm 2 mps 743 mmHg 93%
    06:00 +6°C° 1.3 mm 1 mps 743 mmHg 93%
    07:00 +6°C° 1.3 mm 1 mps 743 mmHg 93%
    08:00 +6°C° 0.4 mm 1 mps 744 mmHg 91%
    09:00 +7°C° 0.4 mm 1 mps 744 mmHg 89%
    10:00 +8°C° 0.4 mm 1 mps 744 mmHg 87%
    11:00 +9°C° 0 mm 1 mps 744 mmHg 81%
    12:00 +11°C° 0 mm 1 mps 744 mmHg 75%
    13:00 +11°C° 0 mm 0 mps 744 mmHg 69%
    14:00 +12°C° 0.1 mm 1 mps 744 mmHg 67%
    15:00 +12°C° 0.1 mm 1 mps 743 mmHg 65%
    16:00 +12°C° 0.1 mm 1 mps 743 mmHg 63%
    17:00 +11°C° 0 mm 1 mps 744 mmHg 69%
    18:00 +10°C° 0 mm 1 mps 744 mmHg 75%
    19:00 +8°C° 0 mm 1 mps 744 mmHg 80%
    20:00 +8°C° 0 mm 1 mps 745 mmHg 83%
    21:00 +7°C° 0 mm 1 mps 745 mmHg 85%
    22:00 +6°C° 0 mm 1 mps 746 mmHg 88%
    23:00 +6°C° 0 mm 1 mps 746 mmHg 88%
    Show more